Weather History for Harrisburg, PA

Change the Weather History Date:

Monday, April 22, 2013

  Actual Average Record
Temperature  
Mean Temperature 46 °F -  
Max Temperature 57 °F 63 °F 93 °F (1985)
Min Temperature 35 °F 41 °F 31 °F (1975)
Degree Days  
Heating Degree Days 19    
Moisture  
Dew Point 32 °F    
Average Humidity 59    
Maximum Humidity 89    
Minimum Humidity 42    
Precipitation  
Precipitation 0.00 in - - ()
Sea Level Pressure  
Sea Level Pressure 30.53 in    
Wind  
Wind Speed 7 mph (ESE)    
Max Wind Speed 16 mph    
Max Gust Speed 23 mph    
Visibility 10 miles    
Events      
Averages and records for this station are not official NWS values.
T = Trace of Precipitation, MM = Missing Value Source: NWS Daily Summary

Daily Weather History Graph

Daily Weather History Graph

Search for Another Location

Airport:

Trip Planner

Search our weather history database for the weather conditions in past years. The results will help you decide how hot, cold, wet, or windy it might be!

Date:

Astronomy

Apr. 22, 2013 Rise Set
Actual Time 6:18 AM EDT 7:53 PM EDT
Civil Twilight 5:50 AM EDT 8:22 PM EDT
Nautical Twilight 5:15 AM EDT 8:57 PM EDT
Astronomical Twilight 4:38 AM EDT 9:34 PM EDT
Moon 4:40 PM EDT (4/22) 4:12 AM EDT (4/22)
Length of Visible Light 14h 32m
Length of Day
13h 34m
Waxing Gibbous, 87% of the Moon is Illuminated
Apr 22
Waxing Gibbous
Apr 25
Full
May 2
Last Quarter
May 9
New
May 18
First Quarter

Hourly Weather History & Observations

Time (EDT) Temp. Windchill Dew Point Humidity Pressure Visibility Wind Dir Wind Speed Gust Speed Precip Events Conditions
12:56 AM 42.1 °F 38.4 °F 28.9 °F 60% 30.59 in 10.0 mi East 5.8 mph - N/A   Clear
1:56 AM 42.1 °F 37.1 °F 32.0 °F 67% 30.58 in 10.0 mi ESE 8.1 mph - N/A   Clear
2:56 AM 39.9 °F 36.7 °F 33.1 °F 77% 30.58 in 10.0 mi SE 4.6 mph - N/A   Clear
3:56 AM 39.9 °F 37.8 °F 33.1 °F 77% 30.58 in 10.0 mi East 3.5 mph - N/A   Clear
4:56 AM 36.0 °F - 32.0 °F 86% 30.59 in 10.0 mi Calm Calm - N/A   Clear
5:56 AM 35.1 °F - 30.9 °F 85% 30.59 in 10.0 mi Calm Calm - N/A   Clear
6:56 AM 35.1 °F - 32.0 °F 89% 30.60 in 9.0 mi Calm Calm - N/A   Clear
7:56 AM 39.9 °F 37.8 °F 33.1 °F 77% 30.61 in 10.0 mi East 3.5 mph - N/A   Clear
8:56 AM 44.1 °F 41.5 °F 30.9 °F 60% 30.61 in 10.0 mi East 4.6 mph - N/A   Clear
9:56 AM 46.9 °F - 28.9 °F 50% 30.60 in 10.0 mi ESE 16.1 mph 20.7 mph N/A   Clear
10:56 AM 48.9 °F - 28.9 °F 46% 30.60 in 10.0 mi SE 15.0 mph - N/A   Clear
11:56 AM 51.1 °F - 30.9 °F 46% 30.56 in 10.0 mi ESE 10.4 mph 16.1 mph N/A   Clear
12:56 PM 53.1 °F - 30.9 °F 43% 30.54 in 10.0 mi ESE 13.8 mph 23.0 mph N/A   Partly Cloudy
1:56 PM 54.0 °F - 32.0 °F 43% 30.52 in 10.0 mi ESE 13.8 mph 19.6 mph N/A   Partly Cloudy
2:56 PM 55.9 °F - 33.1 °F 42% 30.49 in 10.0 mi ESE 10.4 mph - N/A   Scattered Clouds
3:56 PM 57.0 °F - 35.1 °F 44% 30.47 in 10.0 mi ESE 12.7 mph - N/A   Scattered Clouds
4:56 PM 55.9 °F - 33.1 °F 42% 30.45 in 10.0 mi ESE 8.1 mph - N/A   Partly Cloudy
5:56 PM 55.0 °F - 33.1 °F 43% 30.45 in 10.0 mi ESE 16.1 mph 20.7 mph N/A   Clear
6:56 PM 53.1 °F - 32.0 °F 45% 30.44 in 10.0 mi ESE 12.7 mph - N/A   Partly Cloudy
7:56 PM 48.9 °F - 32.0 °F 52% 30.45 in 10.0 mi ESE 10.4 mph 20.7 mph N/A   Partly Cloudy
8:56 PM 48.0 °F - 30.0 °F 50% 30.47 in 10.0 mi East 10.4 mph - N/A   Clear
9:56 PM 46.0 °F 41.4 °F 30.0 °F 54% 30.48 in 10.0 mi East 9.2 mph - N/A   Clear
10:56 PM 44.1 °F 38.1 °F 32.0 °F 63% 30.47 in 10.0 mi ESE 11.5 mph - N/A   Clear
11:56 PM 44.1 °F 40.8 °F 33.1 °F 65% 30.46 in 10.0 mi East 5.8 mph - N/A   Overcast